Location: Caltech
(34.1382°N, 118.1253°W)
Time: 12:02:42
(UTC-08:00)

Tiros 1 despin weight - All Passes

Search period start: 23 February 2018 00:00
Search period end: 05 March 2018 00:00
Orbit: 595 x 643 km, 48.2° (Epoch: 22 February)

Date Brightness Start Highest point End Pass type
(mag) Time Alt. Az. Time Alt. Az. Time Alt. Az.
23 Feb - 00:41:57 10° WNW 00:46:16 54° SW 00:50:33 10° SE night (unlit)
23 Feb - 16:27:19 10° SW 16:31:46 53° SE 16:36:10 10° ENE daylight
23 Feb - 18:09:31 10° W 18:13:30 30° NNW 18:17:27 10° NE visible
23 Feb - 19:53:53 10° NW 19:56:11 14° N 19:58:29 10° NNE visible
23 Feb - 21:36:22 10° NNW 21:39:13 16° NNE 21:42:02 10° NE night (unlit)
23 Feb - 23:17:16 10° NW 23:21:35 49° NNE 23:25:52 10° ESE night (unlit)
24 Feb - 00:59:19 10° WNW 01:02:55 25° SW 01:06:30 10° S night (unlit)
24 Feb - 15:04:33 10° SSE 15:07:24 16° SE 15:10:13 10° E daylight
24 Feb - 16:44:00 10° WSW 16:48:34 75° NW 16:53:04 10° NE daylight
24 Feb - 18:27:21 10° WNW 18:30:42 20° NNW 18:34:01 10° NNE visible
24 Feb - 20:11:31 10° NNW 20:13:38 13° N 20:15:45 10° NNE visible
24 Feb - 21:52:57 10° NNW 21:56:30 23° NNE 22:00:01 10° ENE night (unlit)
24 Feb - 23:34:02 10° NW 23:38:28 83° SW 23:42:52 10° SE night (unlit)
25 Feb - 01:18:20 10° WSW 01:19:26 11° SW 01:20:33 10° SW night (unlit)
25 Feb - 15:19:50 10° SSW 15:24:00 35° SE 15:28:06 10° ENE daylight
25 Feb - 17:01:13 10° W 17:05:31 40° NNW 17:09:46 10° NE daylight
25 Feb - 18:45:22 10° NW 18:48:01 15° NNW 18:50:40 10° NNE visible
25 Feb - 20:28:34 10° NNW 20:31:04 15° N 20:33:33 10° NE visible
25 Feb - 22:09:32 10° NW 22:13:38 36° NNE 22:17:43 10° E night (unlit)
25 Feb - 23:51:06 10° WNW 23:55:12 38° SW 23:59:16 10° SSE night (unlit)
26 Feb - 13:59:26 10° SE 13:59:44 10° SE 14:00:01 10° ESE daylight
26 Feb - 15:36:08 10° SW 15:40:42 75° SE 15:45:14 10° NE daylight
26 Feb - 17:18:53 10° W 17:22:37 25° NNW 17:26:20 10° NNE daylight
26 Feb - 19:03:15 10° NNW 19:05:27 13° N 19:07:38 10° NNE visible
26 Feb - 20:45:15 10° NNW 20:48:25 19° NNE 20:51:34 10° ENE visible
26 Feb - 22:26:12 10° NW 22:30:37 67° NE 22:35:00 10° ESE night (unlit)
27 Feb - 00:08:51 10° W 00:11:47 17° SW 00:14:43 10° S night (unlit)
27 Feb - 14:12:38 10° S 14:16:15 23° SE 14:19:51 10° E daylight
27 Feb - 15:53:04 10° WSW 15:57:34 56° NW 16:02:02 10° NE daylight
27 Feb - 17:36:49 10° WNW 17:39:53 18° NNW 17:42:56 10° NNE daylight
27 Feb - 19:20:38 10° NNW 19:22:53 14° N 19:25:08 10° NE visible
27 Feb - 21:01:49 10° NW 21:05:39 27° NNE 21:09:26 10° E visible
27 Feb - 22:43:04 10° WNW 22:47:26 59° SW 22:51:46 10° SE night (unlit)
28 Feb - 14:28:27 10° SSW 14:32:54 49° SE 14:37:17 10° ENE daylight
28 Feb - 16:10:29 10° W 16:14:36 32° NNW 16:18:40 10° NE daylight
28 Feb - 17:54:49 10° NW 17:57:16 14° N 17:59:41 10° NNE daylight
28 Feb - 19:37:29 10° NNW 19:40:18 16° NNE 19:43:05 10° NE visible
28 Feb - 21:18:25 10° NW 21:22:43 46° NNE 21:26:58 10° ESE visible
28 Feb - 23:00:22 10° WNW 23:04:06 27° SW 23:07:48 10° S night (unlit)
01 Mar - 13:05:55 10° SSE 13:08:33 15° SE 13:11:09 10° E daylight
01 Mar - 14:45:03 10° SW 14:49:41 81° NW 14:54:15 10° NE daylight
01 Mar - 16:28:16 10° WNW 16:31:46 21° NNW 16:35:14 10° NNE daylight
01 Mar - 18:12:30 10° NNW 18:14:42 13° N 18:16:52 10° NNE visible
01 Mar - 19:54:06 10° NNW 19:57:36 22° NNE 20:01:04 10° ENE visible
01 Mar - 21:35:10 10° NW 21:39:37 90° WNW 21:44:02 10° SE visible
01 Mar - 23:18:54 10° WSW 23:20:38 12° SW 23:22:22 10° SSW night (unlit)
02 Mar - 13:21:00 10° SSW 13:25:07 32° SE 13:29:12 10° ENE daylight
02 Mar - 15:02:12 10° WSW 15:06:36 43° NNW 15:10:57 10° NE daylight
02 Mar - 16:46:17 10° NW 16:49:06 16° NNW 16:51:53 10° NNE daylight
02 Mar - 18:29:38 10° NNW 18:32:08 14° N 18:34:37 10° NE visible
02 Mar - 20:10:41 10° NW 20:14:45 34° NNE 20:18:48 10° E visible
02 Mar - 21:52:11 10° WNW 21:56:22 42° SW 22:00:31 10° SSE night (unlit)
03 Mar - 13:37:12 10° SW 13:41:49 68° SE 13:46:23 10° ENE daylight
03 Mar - 15:19:48 10° W 15:23:42 26° NNW 15:27:33 10° NNE daylight
03 Mar - 17:04:11 10° NW 17:06:30 14° N 17:08:48 10° NNE daylight
03 Mar - 18:46:22 10° NNW 18:49:30 18° NNE 18:52:36 10° ENE visible
03 Mar - 20:27:20 10° NW 20:31:46 61° NE 20:36:08 10° ESE visible
03 Mar - 22:09:48 10° W 22:12:59 19° SW 22:16:07 10° S night (unlit)
04 Mar - 12:13:52 10° S 12:17:23 21° SE 12:20:52 10° E daylight
04 Mar - 13:54:05 10° WSW 13:58:40 61° NW 14:03:13 10° NE daylight
04 Mar - 15:37:43 10° WNW 15:40:56 18° NNW 15:44:09 10° NNE daylight
04 Mar - 17:21:38 10° NNW 17:23:56 14° N 17:26:14 10° NE daylight
04 Mar - 19:02:57 10° NNW 19:06:45 26° NNE 19:10:30 10° E visible
04 Mar - 20:44:10 10° WNW 20:48:36 65° SW 20:52:58 10° SE visible
